Weather Roundup
Issued by NWS Springfield, MO

Home | Current Version | Previous Version | Text Only | Print | Product List | Glossary On
Versions: 1 2 3 4 5 6 7 8 9 10 11 12 13 14 15 16 17 18 19 20 21 22 23 24 25 26 27 28 29 30 31 32 33 34 35 36 37 38 39 40 41 42 43 44 45 46 47 48 49 50
569
NZUS99 KSGF 222207
HRRSGF

HOURLY WEATHER
NATIONAL WEATHER SERVICE SPRINGFIELD MO
500 PM CDT SUN APR 22 2018

......SGF CWA......

CITY           SKY/WX    TMP DP  RH WIND       PRES   REMARKS
SPRINGFIELD    LGT RAIN  56  54  93 NE17      29.94S
JOPLIN         PTSUNNY   58  54  86 NE13G25   29.96S
WEST PLAINS    RAIN      53  52  96 NE10      29.91F FOG
ROLLA          LGT RAIN  51  47  86 NE16G28   30.00F
OSAGE BEACH    LGT RAIN  54  52  93 NE17G24   30.01F
BRANSON        CLOUDY    57  52  82 NE8       29.93R

......SURROUNDING SGF CWA......

CITY           SKY/WX    TMP DP  RH WIND       PRES   REMARKS
CHANUTE        CLOUDY    54  50  86 NE13      30.02S
PARSONS        CLOUDY    54  51  90 NE8       30.02R
COFFEYVILLE    CLOUDY    55  52  89 N13       29.99F
EMPORIA        CLOUDY    59  50  72 NE13      30.04F
GROVE OK       DRIZZLE   55  54  94 N3        29.95R
ROGERS AR      CLOUDY    55  52  89 W7        29.94R
SILOAM SPRINGS CLOUDY    52  51  97 NW8       29.95S
HARRISON AR    CLOUDY    62  50  64 N8        29.91S
NEAR YELLVILLE CLOUDY    58  52  80 N7        29.91S

......KANSAS AND MISSOURI......

CITY           SKY/WX    TMP DP  RH WIND       PRES   REMARKS
KANSAS CTY INT CLOUDY    65  42  43 E10       30.07F
DOWNTOWN KC    CLOUDY    66  43  43 E10G20    30.05F
COLUMBIA       CLOUDY    58  39  49 NE18G29   30.05S
SEDALIA        LGT RAIN  59  51  75 NE12      30.05F
ST JOSEPH      SUNNY     70  43  37 E12G22    30.07F
ST LOUIS       LGT RAIN  58  46  64 NE5       30.06F
SPIRIT OF STL  LGT RAIN  57  46  66 NE7       30.05F
KIRKSVILLE     CLOUDY    64  41  42 E12       30.11S
WICHITA        CLOUDY    56  46  69 N14       30.07S
TOPEKA         SUNNY     69  45  41 E9        30.05F
OLATHE         CLOUDY    61  45  55 NE15G21   30.05F

......TENNESSEE......

CITY           SKY/WX    TMP DP  RH WIND       PRES   REMARKS
MEMPHIS        PTSUNNY   68  59  73 SE7       29.84F
NASHVILLE      LGT RAIN  60  56  86 E12       30.01F

......ARKANSAS.......

CITY           SKY/WX    TMP DP  RH WIND       PRES   REMARKS
FAYETTEVILLE   CLOUDY    52  52 100 NW8       29.94R FOG
FT SMITH       CLOUDY    53  52  96 W9        29.95S FOG
LITTLE ROCK    PTSUNNY   65  56  72 NW15      29.86S

......OKLAHOMA.......

CITY           SKY/WX    TMP DP  RH WIND       PRES   REMARKS
TULSA          DRIZZLE   53  51  93 NW13      29.99F FOG
PONCA CITY     CLOUDY    58  45  62 N20G25    30.04F
MCALESTER      CLOUDY    53  48  83 NW8       30.00F
OKLAHOMA CITY  PTSUNNY   62  44  51 N20G26    30.02F

......IOWA............

CITY           SKY/WX    TMP DP  RH WIND       PRES   REMARKS
DES MOINES     CLOUDY    70  28  21 E10G21    30.15F
QUAD CITIES    FAIR      67  31  26 E16       30.18F

......ILLINOIS........

CITY           SKY/WX    TMP DP  RH WIND       PRES   REMARKS
QUINCY         CLOUDY    64  29  26 NE16      30.10S
CHICAGO        PTSUNNY   60  26  27 NE14      30.25F





USA.gov is the U.S. government's official web portal to all federal, state and local government web resources and services.